Вернуться в каталог

CSSWE

АктивенНаукаVLEO
NORAD 38761·PAYLOAD·🇺🇸 United States

Запущен Sep 13, 2012 с Vandenberg Space Force Base

Loading…

Ближайшие Пролёты (ближайшие 24 часа)

TLE

СвежийSource: Space-Track

Эпоха: Sep 14, 2026, 07:40 UTC

1 38761U 12048D   26257.31997768  .00024721  00000-0  44836-3 0  9996
2 38761  64.6620 150.5000 0029965 139.9972 220.3383 15.49067686130189

Отслеживайте CSSWE в реальном времени с AllMySat

Download on the App Store